Starlink 35469

operational
NORAD ID: 65863 Int'l Des: 2025-223 Owner: SPXS Country: US Constellation: starlink
NOTLE

About Starlink 35469

Description loading...

Live Position

Loading 3D Globe...

Upcoming Passes

Altitude History

Altitude vs Time

uPlot chart will show altitude changes over time

Two-Line Element Set

1 65863U 25223K 25310.28342731 .00054608 00000-0 13647-2 0 9999
2 65863 53.1593 149.3647 0000817 86.0447 274.0652 15.39636056 5280
Epoch: Nov 6, 2025 • Age: 20 hours

Current Status

Altitude 459.7 km
Velocity 7.64 km/s
Sub-Earth Point -37.97°S, 20.74°E
Launch Date Oct 3, 2025
Age 34 days
Type internet

Technical Details

Classification Payload
Mass 575.00 kg
Dry Mass 530.00 kg
Total Mass 575.00 kg
Length 0.30 m
Diameter 4.10 m
Span 29.00 m
Shape Box + pan
Manufacturer SPXS
Bus Type Starlink V2MO
Phase Status In Orbit
Owner/State SPXS/US

Large Constellations

Loading constellations...